Weather in Suhag

Egypt     26°33′05″N   31°41′53″E
temp.,
°C
wind,
m/s
gust,
m/s
humid.,
%
clouds,
%
prec.,
mm/h
press.,
hPa
HPBL,
m
26 june, sun
sun2623:00+32nnw49180 0.0 1007249
02:00+29nw510270 0.0 1008311
05:00+27nw57370 0.0 1009181
08:00+30nnw67250 0.0 1010773
11:00+35nnw88140 0.0 10091391
14:00+39nnw8890 0.0 10071950
17:00+38nnw99100 0.0 10061953
20:00+34nnw712150 0.0 1007370
27 june, mon
mon2723:00+31nnw34190 0.0 100854
02:00+28nw33230 0.0 100836
05:00+27nw34290 0.0 100952
08:00+31nnw67240 0.0 1009669
11:00+38nnw88150 0.0 10081785
14:00+41nnw88110 0.0 10062557
17:00+40nnw98130 0.0 10052612
20:00+35nnw712180 0.0 1007401
28 june, tue
tue2823:00+33n713200 0.0 1007465
02:00+30nnw47260 0.0 1007183
05:00+27nw45310 0.0 100784
08:00+31nw45240 0.0 1008566
11:00+36nw68180 0.0 10071950
14:00+39nw99130 0.0 10052567
17:00+38nw89130 0.0 10052545
20:00+33wnw59180 0.0 1006214
29 june, wed
wed2923:00+31nw35220 0.0 100783
02:00+29nw46250 0.0 1007121
05:00+27nnw35380 0.0 100778
08:00+31nnw45370 0.0 1008617
11:00+36nw67220 0.0 10072089
14:00+39nw77130 0.0 10052525
17:00+38nw88130 0.0 10052548
20:00+34nw510190 0.0 1006239
30 june, thu
thu3023:00+31nnw35230 0.0 100784
02:00+29nw33280 0.0 100637
05:00+27nw22330 0.0 100725
08:00+32nw12280 0.0 1007472
11:00+37nw56170 0.0 10072279
14:00+40nw67140 0.0 10042825
17:00+39nw88160 0.0 10043087
20:00+35nw59230 0.0 1006280